Regional Weather Roundup
Issued by NWS Huntsville, AL

Home | Current Version | Previous Version | Text Only | Print | Product List | Glossary On
Versions: 1 2 3 4 5 6 7 8 9 10 11 12 13 14 15 16 17 18 19 20 21 22 23 24 25 26 27 28 29 30 31 32 33 34 35 36 37 38 39 40 41 42 43 44 45 46 47 48 49 50
000
ASUS44 KHUN 220024
RWRHUN

WEATHER ROUNDUP FOR THE TENNESSEE VALLEY
NATIONAL WEATHER SERVICE HUNTSVILLE AL
700 PM CDT THU AUG 21 2014

ALZ001>004-220100-
NORTHWEST ALABAMA

CITY           SKY/WX    TMP DP  RH WIND       PRES   REMARKS
SHOALS AIRPORT CLEAR     88  71  57 SW6       30.07S HX  94
6HR MIN TEMP:  88; 6HR MAX TEMP:  93;

$$

ALZ005>007-016-220100-
NORTH CENTRAL ALABAMA

CITY           SKY/WX    TMP DP  RH WIND       PRES   REMARKS
DECATUR AP     CLEAR     90  72  55 NW3       30.07S HX  97
6HR MIN TEMP:  90; 6HR MAX TEMP:  96;

HUNTSVILLE AP  PTCLDY    91  70  49 NW3       30.07S HX  96
6HR MIN TEMP:  91; 6HR MAX TEMP:  96;

MERIDIANVILLE  CLEAR     86  64  48 CALM      30.08S
VINEMONT AP    FAIR      83  75  76 CALM      30.12S HX  91
$$

ALZ008>010-220100-
NORTHEAST ALABAMA

CITY           SKY/WX    TMP DP  RH WIND       PRES   REMARKS
ALBERTVILLE    PTCLDY    82  77  83 SE5       30.11R HX  91
CROSSVILLE       N/A     81 N/A N/A CALM        N/A
FORT PAYNE     PTCLDY    82  72  69 CALM      30.09S
SCOTTSBORO AP  PTCLDY    82  77  83 CALM      30.08S HX  91
SCOTTSBORO HCN   N/A     84 N/A N/A MISG        N/A
VALLEY HEAD      N/A     81 N/A N/A MISG        N/A
$$

TNZ076-096-097-220100-
SOUTHEASTERN MIDDLE TENNESSEE

CITY           SKY/WX    TMP DP  RH WIND       PRES   REMARKS
FAYETTEVILLE   CLEAR     84  70  61 SW3       30.09S
TULLAHOMA      CLEAR     84  72  65 CALM      30.10S
WINCHESTER       N/A     84  75  74 CALM      30.10R HX  92
$$

...SURROUNDING SITES...

CITY           SKY/WX    TMP DP  RH WIND       PRES   REMARKS
ATLANTA        MOCLDY    80  70  71 W7        30.11S
ANNISTON       PTCLDY    85  67  54 E3        30.09S
BIRMINGHAM     MOCLDY    90  69  50 N5        30.10R HX  94
CHATTANOOGA    PTCLDY    90  69  50 CALM      30.08S HX  94
CORINTH        FAIR      88  72  58 SW5       30.05S HX  94
DALTON         PTCLDY    81  75  83 CALM      30.09S
GADSDEN        MOCLDY    82  73  74 CALM      30.08S
GOLDEN TRNGL   PTCLDY    93  72  49 N5        30.07R HX 100
HALEYVILLE     FAIR      88  73  60 CALM      30.12S HX  95
JACKSON TN     CLEAR     87  76  69 S5        30.03S HX  97
LEWISBURG      FAIR      91  73  55 CALM      30.06F HX  99
MEMPHIS        PTCLDY    90  72  55 SW5G25    30.03S HX  97
MURFREESBORO   FAIR      91  69  48 SW6       30.05R HX  95
NASHVILLE      PTCLDY    88  71  57 SW3       30.05S HX  94
OXFORD MS      FAIR      86  73  66 SW5       30.08R HX  93
ROME           PTCLDY    83  74  74 W5        30.08S
SAVANNAH       CLEAR     88  75  66 CALM      30.06S HX  97
TUPELO         CLEAR     91  72  53 W3        30.05S HX  98
TUSCALOOSA     CLEAR     92  71  50 NW3       30.06R HX  98
$$

...GULF COAST WEATHER...

CITY           SKY/WX    TMP DP  RH WIND       PRES   REMARKS
GULFPORT       CLEAR     88  75  65 S6        30.09S HX  97
PASCAGOULA     PTCLDY    85  76  74 SW5       30.09S HX  94
MOBILE         MOCLDY    85  77  77 SW7       30.11S HX  95
GULF SHORES    CLEAR     84  74  72 W8        30.10R HX  92
PENSACOLA      PTCLDY    85  74  69 W5        30.08R HX  92
DESTIN         MOCLDY    88  78  72 SW7       30.08R HX 101
PANAMA CITY    CLEAR     85  77  75 W8        30.08S HX  96
APPALACHICOLA  CLEAR     88  74  63 W6        30.07R HX  96
$$



USA.gov is the U.S. government's official web portal to all federal, state and local government web resources and services.